FW7968 Weather Reports


time (UTC)temp
C
wind
direction
speed
KPH
gust
KPH
rain 1hr
cm
rain 24hr
cm
rain mn
cm
humidity
%
barometer
mb
20260504214542 21 211 9.7 19.3 0.00 0.00 0.00 33 1005.4
20260504213048 22 261 8.0 20.9 0.00 0.00 0.00 30 1005.3
20260504211542 21 250 9.7 19.3 0.00 0.00 0.00 30 1005.4
20260504210053 21 266 8.0 16.1 0.00 0.00 0.00 31 1005.4
20260504204622 21 236 6.4 24.1 0.00 0.00 0.00 31 1005.5
20260504203045 22 301 11.3 16.1 0.00 0.00 0.00 29 1005.6
20260504201546 21 217 4.8 20.9 0.00 0.00 0.00 33 1005.9
20260504200053 21 252 9.7 24.1 0.00 0.00 0.00 32 1006.0
20260504194553 21 292 11.3 24.1 0.00 0.00 0.00 33 1006.3
20260504193051 21 150 3.2 12.9 0.00 0.00 0.00 33 1006.5
20260504191552 21 252 9.7 30.6 0.00 0.00 0.00 35 1006.9
20260504190058 21 164 6.4 19.3 0.00 0.00 0.00 36 1007.0
20260504184603 20 227 3.2 24.1 0.00 0.00 0.00 39 1007.2
20260504183059 20 273 11.3 22.5 0.00 0.00 0.00 38 1007.6
20260504181554 19 300 4.8 12.9 0.00 0.00 0.00 40 1007.7
20260504180052 19 242 11.3 24.1 0.00 0.00 0.00 39 1007.8
20260504174553 18 229 6.4 29.0 0.00 0.00 0.00 42 1008.0
20260504173054 18 248 12.9 29.0 0.00 0.00 0.00 42 1008.2
20260504171555 18 186 8.0 30.6 0.00 0.00 0.00 44 1008.2
20260504081533 6 348 3.2 12.9 0.00 0.00 0.00 62 1011.7
20260504044545 8 186 3.2 12.9 0.00 0.00 0.00 54 1012.5
20260504043047 8 234 3.2 12.9 0.00 0.00 0.00 54 1012.3
20260504041549 8 217 3.2 11.3 0.00 0.00 0.00 54 1012.4
20260504040049 8 306 4.8 16.1 0.00 0.00 0.00 54 1012.3
20260504034606 8 323 1.6 9.7 0.00 0.00 0.00 55 1012.4
20260504033051 8 138 1.6 6.4 0.00 0.00 0.00 55 1012.5
20260504031553 8 5 0.0 3.2 0.00 0.00 0.00 55 1012.5
20260504030053 8 294 1.6 8.0 0.00 0.00 0.00 54 1012.7
20260504024551 8 282 1.6 6.4 0.00 0.00 0.00 54 1012.6
20260504023052 8 152 0.0 3.2 0.00 0.00 0.00 54 1012.7
20260504021554 8 146 0.0 3.2 0.00 0.00 0.00 53 1012.7
20260504020056 8 321 0.0 1.6 0.00 0.00 0.00 52 1012.6
20260504014611 9 360 0.0 3.2 0.00 0.00 0.00 52 1012.5
20260504013103 10 72 0.0 3.2 0.00 0.00 0.00 50 1012.4
20260504011603 10 134 0.0 3.2 0.00 0.00 0.00 50 1012.4
20260504010101 10 296 0.0 3.2 0.00 0.00 0.00 47 1012.4
20260504004601 11 276 3.2 12.9 0.00 0.00 0.00 46 1012.4
20260504003101 11 198 1.6 8.0 0.00 0.00 0.00 46 1012.4
20260504001623 11 260 1.6 9.7 0.00 0.00 0.00 45 1012.4
20260504000107 11 218 3.2 12.9 0.00 0.00 0.00 44 1012.3
20260503234604 11 286 3.2 14.5 0.00 0.00 0.00 45 1012.4
20260503233104 11 239 3.2 11.3 0.00 0.00 0.00 44 1012.3
20260503231502 11 251 3.2 11.3 0.00 0.00 0.00 44 1012.3
20260503230108 11 266 6.4 16.1 0.00 0.00 0.00 43 1012.1
20260503224605 11 196 6.4 14.5 0.00 0.00 0.00 43 1012.1
20260503223002 12 360 3.2 16.1 0.00 0.00 0.00 42 1012.3
20260503221503 12 322 4.8 9.7 0.00 0.00 0.00 41 1012.2
20260503220010 12 326 1.6 14.5 0.00 0.00 0.00 43 1012.2